Weather in Vinogradov

Ukraine / Zakarpattia District     48°08′22″N   23°02′18″E
temp.,
°C
wind,
m/s
gust,
m/s
humid.,
%
clouds,
%
prec.,
mm/h
press.,
hPa
HPBL,
m
21 october, thu
thu2100:00+8e2275100 0.0 102115
03:00+8e2277100 0.0 101923
06:00+7ese2275100 0.0 101718
09:00+9ese2369100 0.0 101567
12:00+17ssw716435 0.0 10131504
15:00+19sw91738100 0.0 10111922
18:00+17sw71348100 0.0 10101340
21:00+14sw41075100 0.3 1011601
22 october, fri
fri2200:00+14w2569100 0.6 1011136
03:00+13wsw3762100 0.6 1014291
06:00+11sw247223 0.0 101591
09:00+9se237859 0.0 101670
12:00+15wsw6849100 0.0 10171505
15:00+15wsw6952100 0.0 10171110
18:00+12ssw497098 0.1 1017484
21:00+11sw3777100 0.3 1018328
23 october, sat
sat2300:00+9ssw238944 0.2 1018109
03:00+9sw389184 0.4 1019509
06:00+6sw229530 0.1 102061
09:00+6ssw129027 0.1 102271
12:00+10nw345037 0.0 10241274
15:00+13wnw453427 0.0 10232029
18:00+9wnw114281 0.0 102410
21:00+8n234994 0.0 102660
24 october, sun
sun2400:00+7se227162 0.1 102862
03:00+4nne11835 0.1 102910
06:00+3ne11856 0.0 103010
09:00+4wnw11785 0.0 103219
12:00+10n23515 0.0 1032920
15:00+11nw23365 0.0 10311640
18:00+8nw22435 0.0 103213
21:00+5ne225425 0.0 103214
25 october, mon
mon2500:00+3ene22610 0.0 103315
03:00+2ene22650 0.0 103316
06:00+2ene22680 0.0 103213
09:00+3e22655 0.0 103237
12:00+10ese22435 0.0 1031433
15:00+13se223426 0.0 1030740
18:00+9ene11445 0.0 102810
21:00+7ne22515 0.0 102811